When you browse on this site, cookies collect data to enhance your experience and personalize the content and advertising you see.
Visit our Privacy Policy to learn more. By continuing to use the site, you agree to this use of cookies and data.
  • In United Kingdom
  • List of Countries
  • For 7 days
  • Water Temperature
  • Satellite Maps
  • Weather Map
  • Weather Widgets
  • user-avatar
    Login

    Hourly Weather Belmopan

    Today, 13 December, Thursday

    Time Temperature Precipitation Wind Pressure Humidity
    00:00 +21°C° 0 mm 0 mps 754 mmHg 94%
    01:00 +20°C° 0 mm 0 mps 754 mmHg 95%
    02:00 +20°C° 0 mm 0 mps 753 mmHg 96%
    03:00 +20°C° 0 mm 0 mps 753 mmHg 97%
    04:00 +20°C° 0 mm 0 mps 753 mmHg 98%
    05:00 +20°C° 0 mm 0 mps 753 mmHg 98%
    06:00 +20°C° 0 mm 0 mps 753 mmHg 98%
    07:00 +22°C° 0 mm 0 mps 753 mmHg 91%
    08:00 +24°C° 0 mm 0 mps 754 mmHg 83%
    09:00 +26°C° 0 mm 0 mps 754 mmHg 76%
    10:00 +29°C° 0 mm 1 mps 753 mmHg 67%
    11:00 +31°C° 0 mm 1 mps 753 mmHg 59%
    12:00 +34°C° 0 mm 2 mps 753 mmHg 50%
    13:00 +34°C° 0 mm 2 mps 752 mmHg 50%
    14:00 +34°C° 0 mm 2 mps 751 mmHg 50%
    15:00 +34°C° 0 mm 2 mps 750 mmHg 50%
    16:00 +30°C° 0 mm 2 mps 750 mmHg 59%
    17:00 +28°C° 0 mm 2 mps 750 mmHg 69%
    18:00 +26°C° 0 mm 2 mps 750 mmHg 78%
    19:00 +25°C° 0 mm 1 mps 751 mmHg 82%
    20:00 +24°C° 0 mm 1 mps 751 mmHg 87%
    21:00 +24°C° 0 mm 1 mps 752 mmHg 91%
    22:00 +24°C° 0 mm 1 mps 752 mmHg 92%
    23:00 +24°C° 0 mm 1 mps 752 mmHg 93%

    Tomorrow, 14 December, Friday

    Time Temperature Precipitation Wind Pressure Humidity
    00:00 +24°C° 0 mm 1 mps 752 mmHg 94%
    01:00 +24°C° 0 mm 1 mps 752 mmHg 96%
    02:00 +24°C° 0 mm 1 mps 751 mmHg 97%
    03:00 +24°C° 0 mm 1 mps 751 mmHg 98%
    04:00 +22°C° 0 mm 0 mps 751 mmHg 98%
    05:00 +22°C° 0 mm 0 mps 752 mmHg 99%
    06:00 +22°C° 0 mm 0 mps 752 mmHg 99%
    07:00 +24°C° 0 mm 0 mps 753 mmHg 91%
    08:00 +26°C° 0 mm 0 mps 753 mmHg 83%
    09:00 +28°C° 0 mm 0 mps 754 mmHg 75%
    10:00 +31°C° 0.2 mm 1 mps 754 mmHg 71%
    11:00 +32°C° 0.2 mm 1 mps 753 mmHg 67%
    12:00 +32°C° 0.2 mm 1 mps 753 mmHg 63%
    13:00 +31°C° 1.3 mm 1 mps 753 mmHg 71%
    14:00 +30°C° 1.3 mm 1 mps 752 mmHg 79%
    15:00 +29°C° 1.3 mm 1 mps 752 mmHg 88%
    16:00 +28°C° 0.8 mm 1 mps 752 mmHg 91%
    17:00 +26°C° 0.8 mm 1 mps 753 mmHg 94%
    18:00 +25°C° 0.8 mm 1 mps 753 mmHg 97%
    19:00 +24°C° 0.5 mm 1 mps 754 mmHg 98%
    20:00 +24°C° 0.5 mm 1 mps 755 mmHg 98%
    21:00 +24°C° 0.5 mm 2 mps 756 mmHg 98%
    22:00 +23°C° 0.2 mm 2 mps 756 mmHg 98%
    23:00 +23°C° 0.2 mm 2 mps 756 mmHg 98%

    Day after tomorrow, 15 December, Saturday

    Time Temperature Precipitation Wind Pressure Humidity
    00:00 +21°C° 0.2 mm 2 mps 757 mmHg 97%
    01:00 +21°C° 0.2 mm 2 mps 756 mmHg 97%
    02:00 +20°C° 0.2 mm 2 mps 756 mmHg 97%
    03:00 +19°C° 0.2 mm 2 mps 756 mmHg 96%
    04:00 +19°C° 0.1 mm 2 mps 757 mmHg 96%
    05:00 +19°C° 0.1 mm 2 mps 757 mmHg 95%
    06:00 +19°C° 0.1 mm 2 mps 758 mmHg 95%
    07:00 +19°C° 0.1 mm 2 mps 758 mmHg 91%
    08:00 +20°C° 0.1 mm 2 mps 759 mmHg 88%
    09:00 +20°C° 0.1 mm 2 mps 760 mmHg 85%
    10:00 +21°C° 0 mm 2 mps 760 mmHg 78%
    11:00 +24°C° 0 mm 2 mps 759 mmHg 70%
    12:00 +25°C° 0 mm 2 mps 759 mmHg 63%
    13:00 +25°C° 0 mm 2 mps 758 mmHg 63%
    14:00 +25°C° 0 mm 1 mps 758 mmHg 62%
    15:00 +26°C° 0 mm 1 mps 757 mmHg 62%
    16:00 +25°C° 0 mm 1 mps 757 mmHg 68%
    17:00 +23°C° 0 mm 1 mps 758 mmHg 73%
    18:00 +22°C° 0 mm 1 mps 758 mmHg 79%
    19:00 +22°C° 0 mm 1 mps 758 mmHg 82%
    20:00 +21°C° 0 mm 1 mps 759 mmHg 85%
    21:00 +21°C° 0 mm 1 mps 760 mmHg 88%
    22:00 +21°C° 0 mm 1 mps 759 mmHg 86%
    23:00 +21°C° 0 mm 1 mps 759 mmHg 84%

    16 December, Sunday

    Time Temperature Precipitation Wind Pressure Humidity
    00:00 +21°C° 0 mm 1 mps 759 mmHg 83%
    01:00 +21°C° 0 mm 1 mps 759 mmHg 85%
    02:00 +20°C° 0 mm 1 mps 759 mmHg 86%
    03:00 +20°C° 0 mm 1 mps 758 mmHg 88%
    04:00 +20°C° 0 mm 1 mps 759 mmHg 87%
    05:00 +20°C° 0 mm 1 mps 759 mmHg 85%
    06:00 +20°C° 0 mm 1 mps 759 mmHg 84%
    07:00 +21°C° 0 mm 1 mps 760 mmHg 80%
    08:00 +21°C° 0 mm 1 mps 760 mmHg 76%
    09:00 +22°C° 0 mm 1 mps 761 mmHg 72%
    10:00 +24°C° 0 mm 1 mps 760 mmHg 65%
    11:00 +26°C° 0 mm 1 mps 760 mmHg 58%
    12:00 +28°C° 0 mm 2 mps 759 mmHg 51%
    13:00 +28°C° 0 mm 1 mps 758 mmHg 53%
    14:00 +28°C° 0 mm 1 mps 758 mmHg 54%
    15:00 +27°C° 0 mm 1 mps 757 mmHg 56%
    16:00 +26°C° 0 mm 1 mps 757 mmHg 61%
    17:00 +25°C° 0 mm 1 mps 757 mmHg 65%
    18:00 +22°C° 0 mm 0 mps 758 mmHg 70%
    19:00 +22°C° 0 mm 0 mps 758 mmHg 71%
    20:00 +21°C° 0 mm 0 mps 759 mmHg 72%
    21:00 +23°C° 0 mm 1 mps 759 mmHg 73%
    22:00 +22°C° 0 mm 1 mps 759 mmHg 76%
    23:00 +22°C° 0 mm 1 mps 758 mmHg 79%

    17 December, Monday

    Time Temperature Precipitation Wind Pressure Humidity
    00:00 +21°C° 0 mm 1 mps 758 mmHg 82%
    01:00 +21°C° 0 mm 1 mps 758 mmHg 83%
    02:00 +20°C° 0 mm 1 mps 758 mmHg 85%
    03:00 +20°C° 0 mm 1 mps 758 mmHg 87%
    04:00 +19°C° 0 mm 1 mps 758 mmHg 88%
    05:00 +19°C° 0 mm 1 mps 758 mmHg 89%
    06:00 +19°C° 0 mm 1 mps 759 mmHg 90%
    07:00 +20°C° 0 mm 1 mps 759 mmHg 82%
    08:00 +22°C° 0 mm 1 mps 760 mmHg 74%
    09:00 +23°C° 0 mm 2 mps 760 mmHg 66%
    10:00 +24°C° 0 mm 2 mps 760 mmHg 62%
    11:00 +26°C° 0 mm 2 mps 759 mmHg 58%
    12:00 +27°C° 0 mm 2 mps 758 mmHg 53%
    13:00 +27°C° 0 mm 1 mps 758 mmHg 55%
    14:00 +27°C° 0 mm 1 mps 757 mmHg 56%
    15:00 +27°C° 0 mm 1 mps 756 mmHg 58%
    16:00 +26°C° 0 mm 1 mps 757 mmHg 62%
    17:00 +24°C° 0 mm 1 mps 757 mmHg 67%
    18:00 +21°C° 0 mm 0 mps 757 mmHg 71%
    19:00 +21°C° 0 mm 0 mps 757 mmHg 72%
    20:00 +23°C° 0 mm 1 mps 758 mmHg 73%
    21:00 +23°C° 0 mm 1 mps 758 mmHg 75%
    22:00 +22°C° 0 mm 1 mps 758 mmHg 76%
    23:00 +22°C° 0 mm 1 mps 758 mmHg 78%

    18 December, Tuesday

    Time Temperature Precipitation Wind Pressure Humidity
    00:00 +21°C° 0 mm 1 mps 757 mmHg 79%
    01:00 +21°C° 0 mm 1 mps 757 mmHg 81%
    02:00 +20°C° 0 mm 1 mps 757 mmHg 84%
    03:00 +20°C° 0 mm 1 mps 757 mmHg 86%
    04:00 +20°C° 0 mm 1 mps 757 mmHg 86%
    05:00 +20°C° 0 mm 1 mps 757 mmHg 86%
    06:00 +20°C° 0 mm 1 mps 758 mmHg 86%
    07:00 +21°C° 0 mm 1 mps 758 mmHg 80%
    08:00 +22°C° 0 mm 1 mps 758 mmHg 74%
    09:00 +23°C° 0 mm 1 mps 759 mmHg 68%
    10:00 +25°C° 0 mm 1 mps 758 mmHg 62%
    11:00 +26°C° 0 mm 1 mps 757 mmHg 57%
    12:00 +28°C° 0 mm 2 mps 757 mmHg 51%
    13:00 +28°C° 0 mm 1 mps 756 mmHg 52%
    14:00 +28°C° 0 mm 1 mps 756 mmHg 53%
    15:00 +28°C° 0 mm 1 mps 755 mmHg 54%
    16:00 +27°C° 0 mm 1 mps 755 mmHg 59%
    17:00 +25°C° 0 mm 1 mps 756 mmHg 63%
    18:00 +22°C° 0 mm 0 mps 756 mmHg 68%
    19:00 +22°C° 0 mm 0 mps 756 mmHg 70%
    20:00 +21°C° 0 mm 0 mps 756 mmHg 72%
    21:00 +21°C° 0 mm 0 mps 757 mmHg 73%
    22:00 +21°C° 0 mm 0 mps 757 mmHg 74%
    23:00 +20°C° 0 mm 0 mps 756 mmHg 75%
    Show more